Location: Fauquembergues
(50.6005°N, 2.0987°E)
Time: 11:28:10
(UTC+00:00)

Meteor 1-19 Rocket - Pass Details

Date: 27 October 2020
Orbit: 809 x 926 km, 81.2° (Epoch: 28 November)

Event Time Altitude Azimuth Distance (km) Brightness Sun altitude
Exits shadow 00:51:41 10° 14° (NNE) 2,638 7.2 -49.2°
Drops below altitude 10° 00:51:48 10° 14° (NNE) 2,682 7.3 -49.2°
Sets 00:54:11 0° 14° (NNE) 3,586 8.1 -49.0°
